Location: Unspecified
(58.9933°N, 5.6375°E)
Time: 20:58:58
(UTC+01:00)

Okean 3 - Visible Passes

Search period start: 31 October 2014 00:00
Search period end: 10 November 2014 00:00
Orbit: 583 x 609 km, 82.5° (Epoch: 31 October)

Date Brightness Start Highest point End Pass type
(mag) Time Alt. Az. Time Alt. Az. Time Alt. Az.
31 Oct 6.3 05:18:32 10° NNE 05:21:22 17° NE 05:24:10 10° E visible
31 Oct 3.7 06:55:12 10° NNW 06:59:32 79° ENE 07:03:47 10° SSE visible
01 Nov 6.0 05:28:23 10° N 05:31:43 21° ENE 05:35:01 10° ESE visible
01 Nov 3.5 07:05:20 10° NNW 07:09:38 75° W 07:13:52 10° S visible
02 Nov 5.6 05:38:18 10° N 05:42:01 28° ENE 05:45:41 10° ESE visible
03 Nov 5.1 05:48:17 10° N 05:52:16 36° ENE 05:56:13 10° SE visible
04 Nov 6.6 04:22:23 10° NNE 04:23:58 12° NE 04:25:33 10° ENE visible
04 Nov 4.4 05:58:18 10° N 06:02:29 49° ENE 06:06:36 10° SE visible
05 Nov 6.4 04:31:53 10° NNE 04:34:22 15° NE 04:36:50 10° E visible
05 Nov 3.8 06:08:21 10° N 06:12:38 68° ENE 06:16:51 10° SSE visible
06 Nov 6.1 04:41:38 10° N 04:44:43 19° NE 04:47:46 10° ESE visible
06 Nov 3.4 06:18:27 10° NNW 06:22:45 87° W 06:26:59 10° S visible
07 Nov 5.7 04:51:30 10° N 04:55:01 24° ENE 04:58:30 10° ESE visible
07 Nov 3.4 06:28:35 10° NNW 06:32:49 63° W 06:36:59 10° S visible
07 Nov 5.4 19:05:27 10° SSE 19:06:34 17° SSE 19:06:34 17° SSE visible
07 Nov 6.3 20:43:08 10° SW 20:43:21 11° SW 20:43:21 11° SW visible
08 Nov 5.3 05:01:26 10° N 05:05:17 32° ENE 05:09:05 10° SE visible
08 Nov 3.8 06:38:46 10° NNW 06:42:50 45° W 06:46:51 10° SSW visible
08 Nov 4.2 19:15:18 10° S 19:18:11 39° SSE 19:18:11 39° SSE visible
08 Nov 6.1 20:53:41 10° WSW 20:54:58 17° WSW 20:54:58 17° WSW visible
09 Nov 6.7 03:36:09 10° NE 03:36:52 10° NE 03:37:35 10° NE visible
09 Nov 4.7 05:11:24 10° N 05:15:29 42° ENE 05:19:30 10° SE visible
09 Nov 4.2 06:49:00 10° NNW 06:52:48 32° W 06:56:34 10° SSW visible
09 Nov 5.1 17:50:22 10° ESE 17:52:52 15° E 17:52:53 15° E visible
09 Nov 3.3 19:25:17 10° S 19:29:37 84° ESE 19:29:38 84° E visible
09 Nov 6.1 21:04:24 10° WSW 21:06:23 18° WNW 21:06:23 18° WNW visible
